Temp_Advection
nan nan nan nan nan nan nan nan nan nan nan nan nan nan nan nan nan nan nan nan nan nan nan nan nan nan nan nan nan nan nan nan nan nan nan nan nan nan nan nan nan nan nan nan
nan -1 -1 -0 -0 0 -0 -0 -0 0 0 0 -0 -1 -1 -1 -2 -1 -1 -1 -0 -0 0 -0 0 0 0 -0 -0 0 0 0 0 -0 0 0 -0 -0 0 -0 -0 0 -0 nan
nan -1 -0 0 0 0 -0 -0 0 -0 0 -0 -0 0 -0 -0 -0 -1 -1 -1 -0 -0 0 -0 0 0 0 -0 -0 0 0 -0 0 0 0 0 0 0 -0 -0 -0 -0 -0 nan
nan -0 1 0 0 -0 -0 -1 0 -0 0 -0 0 0 1 -0 -0 -2 -1 -1 -1 -0 -0 0 0 0 0 -0 -0 -0 0 0 -0 0 -0 0 -0 -0 -0 -0 0 -0 0 nan
nan 0 0 0 -1 -0 -0 0 0 0 -0 -0 0 1 0 1 1 -1 -1 0 -0 -1 -0 0 -0 0 -0 -0 -0 -0 -0 -0 -0 0 0 0 -0 -0 -0 0 0 -0 -0 nan
nan 0 -0 -1 -1 -0 0 0 1 0 0 0 -0 1 -0 -0 -0 -0 -1 0 -0 -0 -1 0 -0 -0 -0 -0 -1 -1 -0 -0 0 -0 0 0 0 0 0 0 -0 -0 -0 nan
nan 0 -0 -0 -0 0 0 0 0 0 -0 -1 -1 1 -1 0 0 -0 -1 -1 -0 -0 0 -0 -0 0 -0 -0 -0 -1 -0 -0 -0 -0 0 0 0 -0 0 0 -0 -0 -0 nan
nan -0 -0 -0 -0 0 -0 -0 -0 -1 -1 -1 0 1 -0 -0 -0 -0 0 -0 -1 -1 -0 -1 -0 -0 -0 0 -0 -0 -0 -0 -0 -0 -0 -0 -0 -0 -0 -0 -0 0 -0 nan
nan -0 0 0 -0 0 0 -1 -1 -0 -0 0 -0 -1 -0 -0 -1 -1 -1 -1 2 3 3 2 1 -1 -0 -0 -0 0 -0 -0 -0 -0 -0 -0 -0 -0 -0 0 0 0 -0 nan
nan 0 1 0 -0 -0 -0 -0 0 0 0 -0 0 -0 -0 0 -1 -1 -1 -3 -4 -3 -1 1 2 1 1 1 0 0 0 -0 -0 -0 -0 -0 -0 -0 0 0 0 0 0 nan
nan 0 0 0 -0 0 0 -0 -1 -0 0 0 0 -0 -1 -0 -0 -2 -2 -1 -2 -2 -1 0 1 2 1 1 1 2 -0 -0 -0 -0 -0 -0 -0 -0 0 0 0 0 0 nan
nan -0 0 0 0 -0 -1 -0 0 0 -0 -1 1 -1 -1 -1 -1 -2 -1 -1 -1 -1 -1 1 2 2 1 1 1 0 1 1 -0 -0 -0 -0 -0 -0 -0 0 0 0 0 nan
nan -0 0 0 0 -0 -0 -0 -1 -1 0 0 2 -1 -1 -3 -1 -1 -1 -0 -0 -0 0 1 1 1 1 1 0 0 1 1 0 1 0 0 0 0 0 0 0 -0 -0 nan
nan -1 -0 -0 -0 0 0 -0 -0 -0 0 -0 1 -2 0 -2 -3 -1 -0 -0 -0 -0 -0 0 0 -0 0 1 1 1 1 1 1 0 1 1 0 0 0 0 0 0 -0 nan
nan 0 -0 -0 -1 -1 0 0 0 -0 -1 1 -1 -0 -0 -0 -2 -3 -2 -0 -0 -0 0 -0 0 0 -0 0 0 0 0 0 1 1 1 0 0 0 0 0 0 0 0 nan
nan 0 0 0 -0 -0 -0 0 -0 -0 -0 0 -2 -1 -0 -1 -0 -1 -1 -1 -1 -0 -0 -0 0 0 0 -0 -1 -0 -0 -0 -0 0 0 0 -0 0 0 0 0 0 0 nan
nan -0 0 -0 0 0 -0 -1 -0 -0 0 -1 1 -1 -0 -0 -0 -0 -0 -1 -0 -0 -0 -0 -0 -0 -0 -0 -0 0 -0 -0 0 -0 -0 -0 0 0 0 0 0 0 -0 nan
nan -0 -0 0 -0 0 0 -0 -0 0 0 -0 -0 0 0 -0 -0 0 -0 -0 -0 -0 -0 -0 -0 -0 0 0 0 -0 -0 0 -0 -0 -0 0 0 0 0 -0 0 -0 -0 nan
nan 0 0 -0 0 -0 -0 0 1 1 1 -0 0 0 0 0 -1 -1 -0 -0 -0 -0 -0 -0 -0 -0 0 0 0 -0 0 -1 -1 -0 0 0 -0 0 0 0 0 -0 -0 nan
nan 0 0 0 -0 -0 -0 -0 -0 0 0 1 0 0 0 -0 0 -1 -0 -0 -0 -0 -0 -0 -0 -0 -0 -0 -0 -0 -0 -0 -1 -2 -1 -0 0 -0 -0 -0 -0 -0 -0 nan
nan 0 0 -0 -0 0 -1 0 0 0 0 0 1 0 0 0 -2 -0 -0 -0 -0 -0 -0 -0 -0 -0 -0 -0 -0 -0 -0 -0 -0 -1 -2 -2 -1 0 0 -0 -1 -0 -0 nan
nan 0 -0 -0 0 1 1 0 0 -0 0 0 0 0 0 0 -0 -0 -0 -0 -0 -0 -0 -0 -0 -0 -0 -1 -1 -1 -0 -0 -0 -1 -2 -2 -2 -1 -0 -0 -0 0 -0 nan
nan 0 0 -0 -0 -0 0 -0 0 0 0 0 0 0 0 0 -0 -0 -0 -0 -0 -0 -0 -0 -0 -0 -0 -0 -1 -1 -1 -0 -1 -1 -1 -2 -2 -2 -2 -1 0 0 0 nan
nan 0 -0 -0 -0 0 0 0 0 0 0 0 0 0 0 0 0 -0 -0 -0 -0 -0 -0 -0 -0 -0 -0 -0 -0 -0 -1 -1 -1 -1 -1 -1 -2 -2 -1 -2 -2 0 -0 nan
nan -0 0 -0 0 0 0 0 0 0 0 0 0 0 0 0 0 0 -0 -0 -0 -0 -0 -0 -0 -0 -0 -0 -0 -0 -0 -1 -1 -1 -1 -2 -2 -2 -2 -1 -1 -1 -1 nan
nan nan nan nan nan nan nan nan nan nan nan nan nan nan nan nan nan nan nan nan nan nan nan nan nan nan nan nan nan nan nan nan nan nan nan nan nan nan nan nan nan nan nan nan
Wind_Speed
19 13 17 20 20 22 16 18 15 11 16 15 14 13 16 22 22 19 18 21 23 24 25 24 23 21 20 18 18 18 17 17 15 12 12 10 9 8 6 6 4 5 2 3
12 18 17 17 17 17 18 19 15 13 6 11 7 8 16 17 23 23 25 24 24 25 28 25 24 21 20 19 19 19 19 18 17 13 13 10 10 6 10 6 4 4 4 5
15 14 19 15 14 13 16 15 15 15 10 15 12 11 14 15 18 28 23 23 22 26 28 29 27 24 21 19 20 20 20 18 18 14 13 10 10 5 4 5 4 5 7 6
16 16 18 12 16 16 18 16 12 10 16 12 15 7 19 20 16 19 20 24 26 26 26 29 29 26 24 19 20 20 20 19 19 17 15 13 11 11 7 6 9 4 6 6
16 16 14 16 18 16 12 13 8 11 15 13 15 9 4 21 20 16 19 19 26 31 29 29 31 28 25 22 21 20 19 19 18 19 16 13 14 11 9 9 12 10 8 7
17 14 13 17 19 17 7 9 11 12 14 15 10 17 11 8 8 15 19 19 18 21 32 33 28 30 28 25 23 21 20 19 18 17 21 16 12 10 7 12 8 7 6 6
16 9 17 18 20 16 13 14 10 11 12 11 18 16 12 11 8 6 16 19 23 24 21 30 30 32 31 29 25 23 21 20 19 17 15 16 14 12 8 8 8 10 12 8
16 14 19 14 20 13 17 20 12 12 13 14 16 11 10 11 13 9 2 16 24 27 28 27 29 33 32 31 27 25 23 20 20 19 18 16 15 12 14 12 12 7 6 7
13 12 14 8 16 17 18 19 24 14 14 14 13 15 12 13 12 13 12 9 19 27 32 31 28 32 35 31 30 27 24 21 20 19 19 18 17 16 14 14 11 9 9 17
11 9 12 11 8 12 12 14 20 11 17 15 16 19 11 12 10 11 13 17 22 19 15 10 16 27 31 32 30 27 25 22 20 18 18 18 19 17 18 15 15 13 12 11
11 10 12 8 14 15 12 12 16 13 16 13 10 9 12 12 9 11 13 14 19 20 19 11 5 17 15 21 31 30 27 23 20 19 18 17 17 18 17 17 16 16 15 11
2 8 10 17 4 4 14 15 17 12 19 15 7 8 12 13 15 17 13 14 17 20 20 19 15 18 19 12 16 17 28 26 23 21 19 18 17 17 18 18 18 16 17 16
3 9 5 6 6 10 12 10 11 15 18 14 16 10 13 18 16 19 16 15 17 19 21 23 22 16 12 11 10 9 11 13 23 23 21 19 18 18 19 20 18 19 17 17
5 7 7 6 3 16 19 9 11 14 11 12 8 23 16 17 16 17 17 16 17 19 23 22 24 20 15 11 10 11 9 7 8 10 19 20 18 18 18 19 20 19 20 18
6 10 12 3 8 9 12 14 9 16 17 13 20 19 17 15 16 21 18 17 18 19 20 21 21 22 17 14 8 5 2 4 7 12 9 12 15 17 20 19 20 21 21 21
6 3 10 10 5 5 5 6 6 8 5 8 20 19 16 16 18 15 14 15 16 16 15 16 16 17 19 19 17 10 4 8 6 8 11 3 9 16 15 17 20 22 23 24
6 9 7 14 13 4 10 12 10 8 6 11 14 18 14 13 12 9 11 11 11 11 11 12 12 13 13 13 14 13 10 8 2 4 8 11 16 16 17 17 20 20 24 24
6 9 8 12 9 13 4 1 4 6 5 8 13 13 15 13 9 8 11 9 8 8 9 9 9 11 13 12 13 12 11 10 9 5 3 5 9 12 16 21 20 23 22 23
6 7 7 11 9 5 8 7 7 12 10 2 12 10 12 11 12 12 7 6 6 7 7 7 9 10 10 9 12 15 11 13 12 11 9 10 4 7 11 17 18 20 23 26
4 6 6 7 9 14 13 11 4 2 10 12 8 8 7 8 10 13 3 4 5 6 7 8 9 9 8 9 10 11 11 13 11 15 12 10 10 16 15 15 14 13 21 22
7 7 8 8 7 1 10 8 6 9 6 12 9 7 4 2 12 5 3 4 5 6 8 10 9 9 9 10 11 12 12 11 13 14 15 15 14 13 12 17 19 20 16 21
4 4 4 8 10 10 13 6 6 11 14 13 8 7 5 5 3 3 4 5 6 6 7 8 10 11 12 13 13 13 14 15 16 18 19 18 18 18 18 19 19 20 19 21
4 3 2 4 3 6 6 2 8 7 9 7 7 7 6 5 3 2 3 5 6 7 8 9 9 11 12 13 14 16 16 17 19 20 22 23 22 22 23 23 23 20 19 21
7 6 3 2 7 7 11 8 7 6 6 7 7 7 6 4 2 1 2 4 5 7 9 11 12 13 13 13 15 17 19 20 21 23 25 25 25 25 24 25 25 23 19 19
9 7 8 10 10 5 12 13 10 8 8 8 8 6 4 3 2 1 1 3 5 8 11 13 14 14 16 17 18 17 19 20 22 24 25 26 25 26 26 25 25 23 25 20
12 11 8 7 7 12 12 18 16 13 13 11 10 8 6 5 4 3 3 3 6 9 11 14 15 16 17 18 19 19 19 20 23 25 25 24 24 25 25 25 26 27 29 33
Wind_Direction
199 213 207 206 220 239 212 211 238 142 156 214 160 160 148 160 167 166 178 182 197 191 189 181 184 182 177 181 181 179 174 180 175 175 170 177 179 176 179 188 146 184 197 178
183 221 215 233 221 242 249 203 222 128 183 246 126 158 148 181 171 179 180 201 200 195 189 189 189 186 186 182 186 183 180 185 177 179 178 181 171 183 198 191 170 162 182 161
211 212 236 216 211 215 232 217 198 152 181 237 156 191 146 185 186 162 176 195 197 202 187 189 188 189 193 183 189 187 183 187 182 183 182 193 199 209 184 159 177 182 191 170
231 233 206 208 215 212 211 236 226 177 183 202 212 229 182 166 176 144 171 194 198 192 193 193 191 192 196 181 185 186 186 188 189 183 191 193 194 199 192 185 180 192 166 175
214 230 214 202 222 204 243 191 250 179 215 217 179 227 291 157 166 168 193 202 187 188 194 192 190 194 194 183 184 183 183 187 191 189 183 198 193 220 160 214 169 179 183 181
241 193 208 218 219 199 238 150 204 219 230 234 207 227 187 154 96 165 180 207 200 203 186 192 194 192 193 188 187 185 185 189 187 195 190 197 209 214 201 220 188 190 188 189
220 221 213 225 208 194 199 192 189 206 214 224 195 212 114 96 86 87 171 202 207 188 196 193 194 193 193 193 189 188 192 193 197 199 204 206 206 221 223 184 212 199 200 182
203 189 203 204 220 181 218 213 210 194 208 204 189 180 121 111 87 65 224 203 200 191 193 192 195 198 194 192 190 192 194 199 203 205 208 211 212 212 212 227 207 238 195 193
207 208 163 220 231 218 199 228 242 279 238 209 146 91 115 116 99 74 17 26 186 204 185 184 192 192 194 196 193 196 195 201 206 210 211 214 216 203 214 219 224 220 218 226
330 124 172 188 281 265 266 227 234 237 260 221 168 162 143 142 93 75 43 26 33 42 54 122 165 186 191 196 198 197 201 203 202 204 210 217 217 219 204 214 220 221 227 241
307 257 169 153 212 218 211 247 224 240 247 219 184 109 105 118 96 79 51 33 36 36 42 66 104 182 171 187 197 199 203 205 206 206 210 214 217 219 218 214 218 222 223 228
352 289 164 203 171 321 297 232 219 237 223 264 287 101 87 95 98 90 66 47 44 45 47 56 91 151 196 170 191 204 200 209 212 212 214 218 219 217 222 219 218 221 225 224
0 239 191 175 201 214 246 225 269 241 259 251 253 130 123 112 90 85 81 63 55 53 50 55 63 78 117 196 190 189 201 199 213 215 217 221 222 222 221 226 221 221 226 229
292 299 329 355 341 191 211 233 238 263 239 243 245 135 145 125 109 98 87 75 65 55 49 51 56 60 70 84 136 160 155 154 167 195 198 221 223 220 228 225 227 226 227 234
262 225 263 298 344 343 181 204 221 235 252 275 128 135 132 127 113 121 106 88 71 57 50 46 47 50 52 54 57 170 226 150 156 170 177 214 211 245 233 225 229 229 227 233
253 239 197 242 228 325 267 181 267 284 292 260 122 116 111 117 121 113 104 97 80 67 59 50 40 40 39 41 39 36 5 267 260 229 216 214 225 215 230 238 229 227 230 230
268 265 216 226 192 238 248 259 229 225 236 321 163 138 143 141 119 109 118 95 76 66 56 50 45 38 31 27 26 25 25 36 67 231 240 241 228 232 225 226 235 235 228 228
255 249 250 255 159 221 147 358 271 236 136 74 86 122 144 130 129 125 99 89 63 47 36 31 25 15 10 10 7 15 15 12 4 327 232 194 208 210 229 244 242 237 236 237
274 234 235 248 209 149 158 166 183 168 163 332 127 139 140 151 151 128 109 49 35 24 15 3 354 350 355 354 353 348 355 357 345 332 323 283 241 198 216 221 235 250 246 244
211 277 249 221 257 231 77 90 49 88 182 175 173 158 166 189 209 116 87 24 7 1 354 345 340 340 332 333 336 332 338 342 340 326 324 321 308 262 250 251 246 233 244 247
200 209 215 232 222 193 103 129 165 215 111 150 161 146 160 215 61 91 58 42 25 4 350 343 338 334 326 323 319 318 317 316 314 314 312 308 300 296 286 276 261 252 252 255
249 197 239 245 240 231 129 141 233 91 133 142 148 145 135 113 100 70 21 9 4 359 354 347 338 330 325 322 315 308 303 303 303 302 298 295 293 291 282 277 278 272 261 249
266 235 245 250 357 85 159 333 129 152 151 154 156 147 146 147 134 72 9 357 349 347 345 344 338 336 333 328 321 309 302 301 300 297 294 291 285 285 286 280 281 282 282 275
211 225 216 257 252 201 187 165 172 184 178 166 159 157 158 154 149 94 18 354 346 339 336 330 328 325 325 326 322 312 307 302 299 295 292 292 289 282 277 281 277 280 272 272
253 172 234 240 249 218 217 212 202 194 182 178 175 177 179 186 191 204 336 339 342 334 331 326 323 318 315 313 314 312 306 303 299 294 292 288 287 286 283 277 274 265 260 259
238 230 230 248 273 223 242 216 215 203 198 196 196 196 208 212 218 234 276 319 325 328 327 327 322 317 313 311 313 310 304 296 295 292 291 285 280 278 276 274 273 272 277 276
Height
1500 1497 1493 1486 1484 1472 1468 1476 1471 1467 1477 1480 1482 1503 1502 1511 1523 1528 1537 1540 1541 1546 1550 1555 1560 1564 1567 1572 1576 1579 1583 1586 1590 1593 1596 1597 1600 1600 1601 1602 1603 1602 1602 1604
1495 1492 1480 1480 1478 1476 1473 1470 1468 1470 1479 1479 1480 1487 1497 1508 1512 1523 1534 1539 1541 1544 1547 1553 1558 1562 1566 1570 1575 1578 1582 1585 1589 1593 1595 1597 1598 1599 1599 1601 1603 1604 1605 1605
1485 1480 1480 1480 1480 1484 1477 1470 1466 1480 1488 1483 1482 1489 1495 1503 1507 1515 1529 1535 1538 1540 1544 1549 1555 1560 1565 1568 1573 1576 1580 1583 1587 1592 1594 1596 1598 1598 1599 1600 1603 1604 1604 1606
1482 1476 1479 1481 1480 1482 1482 1470 1465 1478 1489 1496 1482 1495 1487 1492 1501 1515 1526 1529 1532 1537 1542 1547 1553 1558 1563 1566 1571 1575 1578 1582 1585 1589 1593 1595 1598 1598 1600 1601 1602 1603 1605 1606
1482 1477 1482 1487 1483 1481 1478 1474 1474 1475 1488 1475 1482 1488 1508 1483 1496 1511 1519 1520 1525 1531 1537 1543 1548 1554 1559 1563 1569 1572 1576 1580 1584 1587 1590 1594 1595 1595 1598 1600 1599 1603 1604 1606
1473 1476 1478 1481 1479 1478 1476 1479 1485 1484 1484 1496 1475 1480 1496 1484 1501 1502 1513 1521 1523 1525 1530 1539 1545 1551 1555 1560 1567 1571 1574 1577 1582 1585 1588 1591 1594 1595 1597 1597 1600 1603 1604 1605
1479 1477 1476 1478 1478 1476 1479 1486 1502 1508 1500 1491 1469 1478 1493 1496 1498 1498 1507 1515 1519 1523 1527 1535 1541 1546 1551 1557 1562 1569 1572 1575 1578 1583 1587 1589 1592 1594 1594 1596 1601 1602 1602 1604
1478 1488 1472 1473 1471 1476 1479 1478 1481 1507 1494 1482 1460 1485 1497 1499 1503 1508 1508 1508 1514 1517 1524 1528 1534 1541 1547 1553 1559 1564 1569 1573 1576 1580 1584 1587 1590 1594 1596 1597 1598 1601 1600 1599
1467 1470 1466 1473 1471 1470 1478 1482 1459 1461 1451 1465 1467 1493 1498 1502 1509 1518 1517 1504 1509 1512 1514 1521 1530 1536 1542 1548 1555 1560 1566 1570 1574 1577 1581 1584 1587 1590 1594 1596 1597 1599 1600 1597
1470 1478 1472 1481 1483 1474 1476 1471 1479 1469 1485 1481 1464 1490 1491 1503 1512 1520 1523 1520 1519 1516 1517 1518 1525 1531 1538 1545 1551 1557 1563 1567 1570 1575 1578 1581 1583 1586 1589 1593 1595 1597 1598 1599
1477 1474 1481 1481 1487 1480 1481 1477 1467 1460 1461 1469 1474 1496 1493 1509 1517 1523 1532 1531 1528 1527 1523 1522 1523 1528 1532 1540 1549 1553 1559 1564 1567 1571 1575 1578 1580 1584 1585 1588 1591 1593 1595 1596
1481 1474 1479 1483 1476 1481 1476 1470 1470 1476 1479 1459 1457 1514 1508 1520 1524 1529 1537 1537 1534 1533 1528 1527 1526 1525 1533 1539 1543 1543 1554 1559 1563 1568 1571 1574 1577 1580 1583 1584 1587 1590 1592 1594
1491 1479 1485 1489 1488 1484 1485 1477 1474 1466 1460 1467 1468 1511 1512 1529 1532 1533 1539 1540 1539 1538 1534 1529 1529 1530 1533 1540 1544 1544 1548 1547 1558 1562 1566 1570 1573 1576 1579 1582 1583 1586 1587 1590
1502 1485 1490 1496 1480 1475 1488 1484 1484 1478 1479 1472 1465 1505 1512 1520 1531 1539 1542 1543 1543 1541 1539 1536 1535 1538 1541 1538 1541 1543 1543 1545 1547 1553 1557 1565 1568 1572 1574 1578 1580 1582 1583 1585
1494 1501 1496 1496 1492 1478 1479 1486 1488 1488 1478 1479 1491 1503 1510 1517 1524 1537 1543 1546 1546 1545 1544 1544 1543 1543 1543 1544 1542 1541 1546 1545 1547 1549 1555 1561 1564 1566 1568 1573 1576 1578 1580 1580
1495 1499 1500 1505 1502 1499 1496 1495 1497 1488 1484 1482 1486 1509 1518 1526 1530 1536 1540 1544 1548 1550 1550 1550 1548 1547 1546 1545 1544 1547 1545 1546 1546 1548 1550 1553 1558 1560 1564 1567 1570 1572 1574 1576
1501 1493 1498 1501 1499 1506 1513 1501 1497 1493 1492 1490 1491 1507 1522 1529 1534 1538 1541 1547 1549 1551 1553 1554 1554 1554 1552 1553 1552 1552 1549 1548 1549 1549 1551 1551 1552 1556 1559 1561 1564 1565 1567 1571
1503 1504 1497 1496 1495 1518 1501 1503 1495 1497 1502 1507 1511 1516 1521 1531 1539 1541 1545 1549 1551 1552 1553 1553 1554 1555 1554 1554 1552 1551 1551 1550 1549 1549 1549 1549 1548 1550 1553 1556 1557 1559 1561 1563
1505 1503 1504 1505 1495 1494 1504 1508 1508 1507 1518 1517 1520 1527 1531 1536 1538 1546 1549 1551 1552 1552 1553 1553 1554 1553 1553 1554 1553 1551 1551 1550 1550 1550 1549 1548 1546 1546 1548 1548 1551 1554 1555 1556
1505 1507 1507 1503 1507 1500 1499 1506 1511 1508 1515 1523 1524 1529 1531 1534 1529 1539 1549 1551 1552 1552 1552 1552 1552 1553 1552 1552 1552 1551 1551 1550 1550 1547 1546 1545 1545 1545 1545 1545 1544 1545 1548 1550
1510 1509 1514 1504 1507 1495 1505 1514 1517 1521 1518 1525 1527 1531 1534 1531 1539 1545 1548 1550 1551 1551 1550 1549 1550 1550 1550 1549 1549 1549 1548 1548 1547 1544 1543 1542 1542 1542 1542 1542 1542 1542 1541 1542
1505 1513 1513 1506 1503 1514 1510 1517 1516 1519 1525 1529 1531 1534 1536 1538 1541 1544 1545 1546 1548 1549 1549 1548 1547 1546 1545 1544 1544 1545 1545 1544 1542 1540 1539 1539 1538 1538 1538 1537 1537 1537 1537 1537
1520 1511 1520 1510 1509 1512 1516 1517 1520 1523 1525 1528 1531 1534 1536 1538 1541 1543 1544 1545 1545 1546 1546 1546 1546 1545 1543 1541 1540 1539 1539 1538 1537 1536 1534 1533 1532 1532 1532 1531 1531 1532 1532 1530
1511 1514 1521 1517 1510 1515 1517 1520 1523 1525 1526 1529 1531 1534 1536 1538 1540 1542 1543 1544 1545 1544 1544 1544 1542 1542 1541 1540 1538 1536 1534 1532 1531 1529 1527 1526 1525 1525 1524 1524 1524 1524 1525 1524
1510 1511 1513 1513 1512 1515 1516 1518 1521 1524 1526 1529 1531 1533 1535 1537 1539 1541 1542 1543 1544 1543 1542 1541 1539 1538 1537 1536 1533 1532 1530 1528 1525 1523 1521 1520 1519 1518 1517 1517 1517 1516 1516 1516
1504 1507 1510 1511 1507 1509 1512 1513 1518 1521 1524 1527 1530 1532 1534 1536 1537 1539 1540 1541 1542 1541 1540 1538 1536 1534 1533 1531 1529 1527 1525 1522 1520 1517 1516 1515 1513 1512 1512 1511 1509 1508 1506 1505